Карточка аэропорта UATT

Внимание!
Информация на этой странице в стадии наполнения.
Если вы не увидели какой-то информации, или заметили неточность - пожалуйста сообщите нам!
Спасибо!
Команда RU-STAFF
Название аэропортаАктобе
Название аэропорта (англ.)Aktobe
Превышение738 ft. (224.9 m.)
Координаты50°14.748', 57°12.402'
Высота перехода10000ft
Эшелон переходаFL120, QNH<733:FL130
Коды ответчика3440-3447, 3540-3547
Зона ОрВДАктобе РПИ (UATT)
Данные METARUATT 051100Z 13002MPS CAVOK M09/M12 Q1023 NOSIG RMK QFE748/0997
Проноз погоды (TAF)UATT 050500Z 0506/0606 24002MPS 3100 BR BKN005 TXM04/0512Z TNM14/0506Z TEMPO 0506/0512 1000 BKN003 TEMPO 0516/0521 1000 BKN003 TEMPO 0521/0604 0500 FZFG VV002
NOTAMshow/hide NOTAM
AWOS   TABLE

Информация о ВПП

ВПП Длина ВПП (м.) Покрытие Курс ВПП Частота ILS
133202Бетон135111.7
313202Бетон315111.7

Диспетчерские позиции




Спутниковое изображение